Time,TemperatureF,DewpointF,PressureIn,WindDirection,WindDirectionDegrees,WindSpeedMPH,WindSpeedGustMPH,Humidity,HourlyPrecipIn,Conditions,Clouds,dailyrainin,SoftwareType,DateUTC
2013-01-19 00:02:00,10.0,9.0,30.43,NNW,348,0.0,0.0,96,0.00,,,0.00,,2013-01-19 08:02:00,
2013-01-19 00:12:00,10.0,9.0,30.43,NNW,348,0.0,0.0,96,0.00,,,0.00,,2013-01-19 08:12:00,
2013-01-19 00:22:00,11.0,10.0,30.43,WNW,303,0.0,1.0,97,0.00,,,0.00,,2013-01-19 08:22:00,
2013-01-19 00:32:00,11.0,10.0,30.43,WNW,291,0.0,2.0,96,0.00,,,0.00,,2013-01-19 08:32:00,
2013-01-19 00:42:00,11.0,10.0,30.43,WNW,291,0.0,2.0,96,0.00,,,0.00,,2013-01-19 08:42:00,
2013-01-19 00:52:00,15.0,15.0,30.43,West,281,0.0,0.0,99,0.00,,,0.00,,2013-01-19 08:52:00,
2013-01-19 01:02:00,15.0,15.0,30.43,NW,318,0.0,1.0,98,0.00,,,0.00,,2013-01-19 09:02:00,
2013-01-19 01:12:00,15.0,15.0,30.43,NW,318,0.0,1.0,98,0.00,,,0.00,,2013-01-19 09:12:00,
2013-01-19 01:22:00,12.0,11.0,30.43,NNE,25,0.0,2.0,96,0.00,,,0.00,,2013-01-19 09:22:00,
2013-01-19 01:32:00,13.0,12.0,30.44,NNE,25,1.0,1.0,97,0.00,,,0.00,,2013-01-19 09:32:00,
2013-01-19 01:42:00,13.0,12.0,30.44,NNE,25,1.0,1.0,97,0.00,,,0.00,,2013-01-19 09:42:00,
2013-01-19 01:52:00,12.0,11.0,30.44,NNE,25,0.0,1.0,95,0.00,,,0.00,,2013-01-19 09:52:00,
2013-01-19 02:02:00,10.0,9.0,30.43,NNE,25,0.0,0.0,95,0.00,,,0.00,,2013-01-19 10:02:00,
2013-01-19 02:12:00,10.0,9.0,30.43,NNE,25,0.0,0.0,95,0.00,,,0.00,,2013-01-19 10:12:00,
2013-01-19 02:22:00,12.0,11.0,30.44,WNW,298,0.0,1.0,97,0.00,,,0.00,,2013-01-19 10:22:00,
2013-01-19 02:32:00,12.0,11.0,30.45,NNW,328,0.0,1.0,96,0.00,,,0.00,,2013-01-19 10:32:00,
2013-01-19 02:42:00,12.0,11.0,30.45,NNW,328,0.0,1.0,96,0.00,,,0.00,,2013-01-19 10:42:00,
2013-01-19 02:52:00,11.0,10.0,30.45,NNW,327,0.0,1.0,95,0.00,,,0.00,,2013-01-19 10:52:00,
2013-01-19 03:02:00,11.0,10.0,30.45,West,278,0.0,1.0,96,0.00,,,0.00,,2013-01-19 11:02:00,
2013-01-19 03:12:00,11.0,10.0,30.45,West,278,0.0,1.0,96,0.00,,,0.00,,2013-01-19 11:12:00,
2013-01-19 04:48:00,10.0,9.0,30.46,North,1,0.0,1.0,95,0.00,,,0.00,,2013-01-19 12:48:00,
2013-01-19 04:52:00,10.0,9.0,30.46,North,1,0.0,1.0,95,0.00,,,0.00,,2013-01-19 12:52:00,
2013-01-19 05:02:00,10.0,9.0,30.46,North,1,0.0,0.0,95,0.00,,,0.00,,2013-01-19 13:02:00,
2013-01-19 05:12:00,10.0,9.0,30.46,North,1,0.0,0.0,95,0.00,,,0.00,,2013-01-19 13:12:00,
2013-01-19 05:22:00,11.0,10.0,30.46,North,2,0.0,1.0,96,0.00,,,0.00,,2013-01-19 13:22:00,
2013-01-19 05:33:00,12.0,11.0,30.47,North,3,0.0,1.0,96,0.00,,,0.00,,2013-01-19 13:33:00,
2013-01-19 05:42:00,12.0,11.0,30.47,North,3,0.0,1.0,96,0.00,,,0.00,,2013-01-19 13:42:00,
2013-01-19 05:52:00,13.0,12.0,30.47,NNW,337,0.0,0.0,97,0.00,,,0.00,,2013-01-19 13:52:00,
2013-01-19 06:02:00,14.0,13.0,30.47,NW,324,0.0,1.0,97,0.00,,,0.00,,2013-01-19 14:02:00,
2013-01-19 06:12:00,14.0,13.0,30.47,NW,324,0.0,1.0,97,0.00,,,0.00,,2013-01-19 14:12:00,
2013-01-19 06:22:00,12.0,11.0,30.47,NNW,332,0.0,1.0,95,0.00,,,0.00,,2013-01-19 14:22:00,
2013-01-19 06:33:00,11.0,10.0,30.47,NNW,331,0.0,1.0,95,0.00,,,0.00,,2013-01-19 14:33:00,
2013-01-19 06:42:00,11.0,10.0,30.47,NNW,331,0.0,1.0,95,0.00,,,0.00,,2013-01-19 14:42:00,
2013-01-19 06:53:00,11.0,10.0,30.48,NNE,25,1.0,3.0,95,0.00,,,0.00,,2013-01-19 14:53:00,
2013-01-19 07:03:00,11.0,10.0,30.48,NNE,25,0.0,1.0,96,0.00,,,0.00,,2013-01-19 15:03:00,
2013-01-19 07:12:00,11.0,10.0,30.48,NNE,25,0.0,1.0,96,0.00,,,0.00,,2013-01-19 15:12:00,
2013-01-19 07:22:00,11.0,10.0,30.48,NNE,23,0.0,0.0,95,0.00,,,0.00,,2013-01-19 15:22:00,
2013-01-19 07:33:00,11.0,10.0,30.48,NNE,23,0.0,0.0,95,0.00,,,0.00,,2013-01-19 15:33:00,
2013-01-19 07:43:00,11.0,10.0,30.48,NNE,23,0.0,0.0,95,0.00,,,0.00,,2013-01-19 15:43:00,
2013-01-19 07:53:00,11.0,10.0,30.48,NNE,23,0.0,0.0,96,0.00,,,0.00,,2013-01-19 15:53:00,
2013-01-19 08:02:00,13.0,12.0,30.48,NNE,23,1.0,1.0,97,0.00,,,0.00,,2013-01-19 16:02:00,
2013-01-19 08:12:00,13.0,12.0,30.48,NNE,23,1.0,1.0,97,0.00,,,0.00,,2013-01-19 16:12:00,
2013-01-19 08:22:00,12.0,11.0,30.49,NW,310,0.0,1.0,95,0.00,,,0.00,,2013-01-19 16:22:00,
2013-01-19 08:32:00,12.0,11.0,30.50,NNE,14,0.0,1.0,96,0.00,,,0.00,,2013-01-19 16:32:00,
2013-01-19 08:42:00,12.0,11.0,30.50,NNE,14,0.0,1.0,96,0.00,,,0.00,,2013-01-19 16:42:00,
2013-01-19 08:53:00,11.0,10.0,30.50,NNE,14,0.0,1.0,95,0.00,,,0.00,,2013-01-19 16:53:00,
2013-01-19 09:02:00,12.0,11.0,30.51,NNE,14,0.0,1.0,96,0.00,,,0.00,,2013-01-19 17:02:00,
2013-01-19 09:14:00,12.0,11.0,30.51,NNE,14,0.0,1.0,96,0.00,,,0.00,,2013-01-19 17:14:00,
2013-01-19 09:25:00,12.0,11.0,30.51,NNE,14,0.0,1.0,96,0.00,,,0.00,,2013-01-19 17:25:00,
2013-01-19 09:34:00,13.0,12.0,30.52,NW,316,0.0,1.0,95,0.00,,,0.00,,2013-01-19 17:34:00,
2013-01-19 09:50:00,13.0,12.0,30.52,NW,316,0.0,1.0,95,0.00,,,0.00,,2013-01-19 17:50:00,
2013-01-19 10:05:00,13.0,12.0,30.52,NW,316,0.0,1.0,95,0.00,,,0.00,,2013-01-19 18:05:00,
2013-01-19 10:25:00,15.0,14.0,30.53,WSW,255,0.0,2.0,95,0.00,,,0.00,,2013-01-19 18:25:00,
2013-01-19 10:34:00,17.0,16.0,30.52,WSW,255,0.0,1.0,96,0.00,,,0.00,,2013-01-19 18:34:00,
2013-01-19 10:44:00,17.0,16.0,30.52,WSW,255,0.0,1.0,96,0.00,,,0.00,,2013-01-19 18:44:00,
2013-01-19 10:54:00,20.0,19.0,30.53,WSW,257,0.0,1.0,97,0.00,,,0.00,,2013-01-19 18:54:00,
2013-01-19 11:05:00,21.0,20.0,30.52,WSW,257,0.0,0.0,96,0.00,,,0.00,,2013-01-19 19:05:00,
2013-01-19 11:36:00,23.0,23.0,30.52,NNW,344,0.0,2.0,98,0.00,,,0.00,,2013-01-19 19:36:00,
2013-01-19 11:44:00,23.0,23.0,30.52,NNW,344,0.0,2.0,98,0.00,,,0.00,,2013-01-19 19:44:00,
2013-01-19 11:54:00,24.0,23.0,30.51,NW,308,0.0,1.0,96,0.00,,,0.00,,2013-01-19 19:54:00,
2013-01-19 12:06:00,22.0,21.0,30.50,West,266,2.0,2.0,96,0.00,,,0.00,,2013-01-19 20:06:00,
2013-01-19 12:15:00,22.0,21.0,30.50,West,266,2.0,2.0,96,0.00,,,0.00,,2013-01-19 20:15:00,
2013-01-19 12:35:00,23.0,22.0,30.50,West,264,2.0,2.0,96,0.00,,,0.00,,2013-01-19 20:35:00,
2013-01-19 12:44:00,23.0,22.0,30.50,West,264,2.0,2.0,96,0.00,,,0.00,,2013-01-19 20:44:00,
2013-01-19 12:53:00,24.0,23.0,30.49,West,265,2.0,2.0,95,0.00,,,0.00,,2013-01-19 20:53:00,
2013-01-19 13:04:00,25.0,24.0,30.48,West,263,1.0,2.0,94,0.00,,,0.00,,2013-01-19 21:04:00,
2013-01-19 13:13:00,25.0,24.0,30.48,West,263,1.0,2.0,94,0.00,,,0.00,,2013-01-19 21:13:00,
2013-01-19 13:23:00,28.0,27.0,30.48,West,262,0.0,0.0,97,0.00,,,0.00,,2013-01-19 21:23:00,
2013-01-19 13:47:00,28.0,26.0,30.47,West,262,0.0,1.0,93,0.00,,,0.00,,2013-01-19 21:47:00,
2013-01-19 13:53:00,27.0,26.0,30.47,NE,35,2.0,2.0,94,0.00,,,0.00,,2013-01-19 21:53:00,
2013-01-19 14:06:00,28.0,27.0,30.47,NNE,29,1.0,1.0,96,0.00,,,0.00,,2013-01-19 22:06:00,
2013-01-19 14:15:00,28.0,27.0,30.47,NNE,29,1.0,1.0,96,0.00,,,0.00,,2013-01-19 22:15:00,
2013-01-19 14:23:00,28.0,27.0,30.47,NNE,29,1.0,1.0,96,0.00,,,0.00,,2013-01-19 22:23:00,
2013-01-19 14:34:00,29.0,26.0,30.46,WSW,241,1.0,2.0,87,0.00,,,0.00,,2013-01-19 22:34:00,
2013-01-19 14:48:00,29.0,26.0,30.46,WSW,241,1.0,2.0,87,0.00,,,0.00,,2013-01-19 22:48:00,
2013-01-19 14:57:00,28.0,25.0,30.46,WSW,248,2.0,2.0,88,0.00,,,0.00,,2013-01-19 22:57:00,
2013-01-19 15:24:00,28.0,25.0,30.46,WSW,248,1.0,2.0,87,0.00,,,0.00,,2013-01-19 23:24:00,
2013-01-19 15:33:00,29.0,26.0,30.46,WSW,257,0.0,1.0,87,0.00,,,0.00,,2013-01-19 23:33:00,
2013-01-19 15:44:00,29.0,26.0,30.46,WSW,257,0.0,1.0,87,0.00,,,0.00,,2013-01-19 23:44:00,
2013-01-19 16:07:00,28.0,25.0,30.46,West,276,0.0,1.0,90,0.00,,,0.00,,2013-01-20 00:07:00,
2013-01-19 16:14:00,28.0,25.0,30.46,West,276,0.0,1.0,90,0.00,,,0.00,,2013-01-20 00:14:00,
2013-01-19 16:23:00,27.0,24.0,30.47,West,275,0.0,0.0,90,0.00,,,0.00,,2013-01-20 00:23:00,
2013-01-19 16:34:00,26.0,24.0,30.47,WNW,283,0.0,1.0,92,0.00,,,0.00,,2013-01-20 00:34:00,
2013-01-19 16:53:00,26.0,24.0,30.47,WNW,282,0.0,0.0,92,0.00,,,0.00,,2013-01-20 00:53:00,
2013-01-19 17:03:00,26.0,24.0,30.47,WNW,282,0.0,0.0,92,0.00,,,0.00,,2013-01-20 01:03:00,
2013-01-19 17:15:00,26.0,24.0,30.47,WNW,282,0.0,0.0,92,0.00,,,0.00,,2013-01-20 01:15:00,
2013-01-19 17:23:00,24.0,23.0,30.47,WNW,283,0.0,0.0,94,0.00,,,0.00,,2013-01-20 01:23:00,
2013-01-19 17:35:00,24.0,23.0,30.47,WNW,283,0.0,0.0,94,0.00,,,0.00,,2013-01-20 01:35:00,
2013-01-19 17:45:00,24.0,23.0,30.47,WNW,283,0.0,0.0,94,0.00,,,0.00,,2013-01-20 01:45:00,
2013-01-19 17:54:00,23.0,22.0,30.47,WNW,283,0.0,0.0,94,0.00,,,0.00,,2013-01-20 01:54:00,
2013-01-19 18:05:00,23.0,22.0,30.47,WNW,282,0.0,0.0,97,0.00,,,0.00,,2013-01-20 02:05:00,
2013-01-19 18:13:00,23.0,22.0,30.47,WNW,282,0.0,0.0,97,0.00,,,0.00,,2013-01-20 02:13:00,
2013-01-19 18:24:00,24.0,23.0,30.47,WNW,282,0.0,1.0,96,0.00,,,0.00,,2013-01-20 02:24:00,
2013-01-19 18:34:00,24.0,23.0,30.47,WNW,282,0.0,0.0,96,0.00,,,0.00,,2013-01-20 02:34:00,
2013-01-19 18:43:00,24.0,23.0,30.47,WNW,282,0.0,0.0,96,0.00,,,0.00,,2013-01-20 02:43:00,
2013-01-19 19:05:00,23.0,22.0,30.47,NNW,327,0.0,0.0,95,0.00,,,0.00,,2013-01-20 03:05:00,
2013-01-19 19:13:00,23.0,22.0,30.47,NNW,327,0.0,0.0,95,0.00,,,0.00,,2013-01-20 03:13:00,
2013-01-19 19:23:00,22.0,21.0,30.47,NNW,329,0.0,1.0,95,0.00,,,0.00,,2013-01-20 03:23:00,
2013-01-19 19:34:00,22.0,21.0,30.47,NNE,16,1.0,2.0,96,0.00,,,0.00,,2013-01-20 03:34:00,
2013-01-19 19:44:00,22.0,21.0,30.47,NNE,16,1.0,2.0,96,0.00,,,0.00,,2013-01-20 03:44:00,
2013-01-19 19:53:00,23.0,23.0,30.48,NNW,331,1.0,2.0,99,0.00,,,0.00,,2013-01-20 03:53:00,
2013-01-19 20:04:00,23.0,22.0,30.48,NNW,334,0.0,1.0,95,0.00,,,0.00,,2013-01-20 04:04:00,
2013-01-19 20:14:00,23.0,22.0,30.48,NNW,334,0.0,1.0,95,0.00,,,0.00,,2013-01-20 04:14:00,
2013-01-19 20:23:00,22.0,21.0,30.49,NNW,334,0.0,1.0,97,0.00,,,0.00,,2013-01-20 04:23:00,
2013-01-19 20:43:00,21.0,20.0,30.49,NNW,335,0.0,1.0,96,0.00,,,0.00,,2013-01-20 04:43:00,
2013-01-19 20:53:00,21.0,20.0,30.49,NNW,334,0.0,1.0,96,0.00,,,0.00,,2013-01-20 04:53:00,
2013-01-19 21:03:00,21.0,20.0,30.50,NW,307,0.0,1.0,97,0.00,,,0.00,,2013-01-20 05:03:00,
2013-01-19 21:12:00,21.0,20.0,30.50,NW,307,0.0,1.0,97,0.00,,,0.00,,2013-01-20 05:12:00,
2013-01-19 21:22:00,21.0,20.0,30.50,NW,307,0.0,1.0,97,0.00,,,0.00,,2013-01-20 05:22:00,
2013-01-19 21:32:00,21.0,20.0,30.50,NW,307,0.0,1.0,97,0.00,,,0.00,,2013-01-20 05:32:00,
2013-01-19 21:53:00,22.0,22.0,30.51,WSW,255,0.0,2.0,99,0.00,,,0.00,,2013-01-20 05:53:00,
2013-01-19 22:02:00,22.0,22.0,30.51,West,261,1.0,1.0,99,0.00,,,0.00,,2013-01-20 06:02:00,
2013-01-19 22:12:00,22.0,22.0,30.51,West,261,1.0,1.0,99,0.00,,,0.00,,2013-01-20 06:12:00,
2013-01-19 22:22:00,22.0,22.0,30.51,West,261,1.0,1.0,99,0.00,,,0.00,,2013-01-20 06:22:00,
2013-01-19 22:32:00,23.0,23.0,30.50,West,262,0.0,2.0,98,0.00,,,0.00,,2013-01-20 06:32:00,
2013-01-19 22:43:00,23.0,23.0,30.50,West,262,0.0,2.0,98,0.00,,,0.00,,2013-01-20 06:43:00,
2013-01-19 22:53:00,22.0,21.0,30.50,West,263,0.0,1.0,97,0.00,,,0.00,,2013-01-20 06:53:00,
2013-01-19 23:02:00,20.0,19.0,30.51,NW,309,0.0,1.0,96,0.00,,,0.00,,2013-01-20 07:02:00,
2013-01-19 23:11:00,20.0,19.0,30.51,NW,309,0.0,1.0,96,0.00,,,0.00,,2013-01-20 07:11:00,
2013-01-19 23:22:00,19.0,18.0,30.51,NW,310,0.0,1.0,96,0.00,,,0.00,,2013-01-20 07:22:00,
2013-01-19 23:32:00,19.0,18.0,30.51,NW,310,0.0,1.0,97,0.00,,,0.00,,2013-01-20 07:32:00,
2013-01-19 23:42:00,19.0,18.0,30.51,NW,310,0.0,1.0,97,0.00,,,0.00,,2013-01-20 07:42:00,
2013-01-19 23:52:00,19.0,18.0,30.51,NW,310,0.0,1.0,97,0.00,,,0.00,,2013-01-20 07:52:00,